TimeCST,TemperatureF,Dew PointF,Humidity,Sea Level PressureIn,VisibilityMPH,Wind Direction,Wind SpeedMPH,Gust SpeedMPH,PrecipitationIn,Events,Conditions,WindDirDegrees,DateUTC
12:53 AM,34.0,27.0,75,30.36,10.0,South,9.2,-,N/A,,Clear,190,2013-01-18 06:53:00
1:53 AM,34.0,27.0,75,30.34,10.0,South,8.1,-,N/A,,Clear,180,2013-01-18 07:53:00
2:53 AM,33.1,26.1,75,30.33,10.0,South,5.8,-,N/A,,Clear,180,2013-01-18 08:53:00
3:53 AM,34.0,27.0,75,30.31,10.0,South,11.5,-,N/A,,Clear,190,2013-01-18 09:53:00
4:53 AM,34.0,27.0,75,30.28,10.0,South,11.5,-,N/A,,Clear,180,2013-01-18 10:53:00
5:53 AM,35.1,27.0,72,30.25,10.0,South,12.7,-,N/A,,Clear,190,2013-01-18 11:53:00
6:53 AM,35.1,27.0,72,30.25,10.0,South,11.5,-,N/A,,Clear,180,2013-01-18 12:53:00
7:53 AM,36.0,27.0,70,30.23,10.0,South,12.7,-,0.00,,Clear,190,2013-01-18 13:53:00
8:53 AM,42.1,28.9,60,30.23,10.0,South,19.6,-,N/A,,Clear,190,2013-01-18 14:53:00
9:53 AM,46.9,28.9,50,30.22,10.0,SSW,26.5,33.4,N/A,,Clear,210,2013-01-18 15:53:00
10:53 AM,51.1,28.9,43,30.20,10.0,SSW,21.9,27.6,N/A,,Clear,210,2013-01-18 16:53:00
11:53 AM,55.9,30.0,37,30.13,10.0,SSW,25.3,34.5,N/A,,Clear,210,2013-01-18 17:53:00
12:53 PM,60.1,28.0,30,30.09,10.0,SW,27.6,38.0,N/A,,Clear,220,2013-01-18 18:53:00
1:53 PM,62.1,28.0,28,30.05,10.0,SW,27.6,38.0,N/A,,Clear,220,2013-01-18 19:53:00
2:53 PM,63.0,28.9,28,30.04,10.0,SW,23.0,36.8,N/A,,Clear,220,2013-01-18 20:53:00
3:53 PM,63.0,28.9,28,30.04,10.0,SW,19.6,31.1,N/A,,Clear,220,2013-01-18 21:53:00
4:53 PM,60.1,28.9,31,30.03,10.0,SSW,19.6,26.5,N/A,,Clear,210,2013-01-18 22:53:00
5:53 PM,54.0,30.0,40,30.04,10.0,SSW,10.4,-,N/A,,Clear,200,2013-01-18 23:53:00
6:53 PM,50.0,30.9,48,30.04,10.0,South,13.8,-,N/A,,Clear,190,2013-01-19 00:53:00
7:53 PM,42.1,28.0,58,30.07,10.0,West,4.6,-,N/A,,Clear,280,2013-01-19 01:53:00
8:53 PM,44.1,30.0,58,30.04,10.0,South,11.5,-,N/A,,Clear,190,2013-01-19 02:53:00
9:53 PM,34.0,28.0,79,30.04,10.0,South,9.2,-,N/A,,Clear,190,2013-01-19 03:53:00
10:53 PM,37.9,30.0,73,30.02,10.0,South,10.4,-,N/A,,Clear,190,2013-01-19 04:53:00
11:53 PM,39.9,30.0,68,30.01,10.0,SSW,11.5,-,N/A,,Clear,200,2013-01-19 05:53:00